Weather Roundup
Issued by NWS Chicago, IL

Home | Current Version | Previous Version | Graphics & Text | Print | Product List | Glossary On
Versions: 1 2 3 4 5 6 7 8 9 10 11 12 13 14 15 16 17 18 19 20 21 22 23 24 25 26 27 28 29 30 31 32 33 34 35 36 37 38 39 40 41 42 43 44 45 46 47 48 49 50
000
NZUS59 KLOT 240609
HRRLOT

CHICAGO AREA WEATHER ROUNDUP
NATIONAL WEATHER SERVICE CHICAGO/ROMEOVILLE IL
100 AM CDT SAT JUN 24 2017

NOTE: "FAIR" INDICATES FEW OR NO CLOUDS BELOW 12,000 FEET WITH NO
SIGNIFICANT WEATHER AND/OR OBSTRUCTIONS TO VISIBILITY.

* THESE STATIONS ARE NOT UNDER NWS QUALITY CONTROL. THEY ALSO MAY NOT
  REPORT WEATHER SUCH AS PRECIPITATION OR FOG.

ILZ005-006-012>014-019>023-240700-
NORTHEAST ILLINOIS

CITY           SKY/WX    TMP DP  RH WIND       PRES   REMARKS
OHARE          CLEAR     66  54  65 W9        29.86R
6HR MIN TEMP:  66; 6HR MAX TEMP:  79;

MIDWAY         CLEAR     68  54  60 NW10      29.87R
6HR MIN TEMP:  68; 6HR MAX TEMP:  80;

AURORA         CLEAR     60  57  89 W7        29.90R
6HR MIN TEMP:  60; 6HR MAX TEMP:  76;

LANSING*       CLEAR     65  53  63 W6        29.87S
JOLIET*        CLEAR     65  58  78 W5        29.89S
WAUKEGAN       CLEAR     63  55  75 CALM      29.84R
6HR MIN TEMP:  63; 6HR MAX TEMP:  77;

DUPAGE AIRPORT CLEAR     62  56  80 W7        29.88R
6HR MIN TEMP:  62; 6HR MAX TEMP:  77;

WHEELING       CLEAR     65  55  70 VRB5      29.87R
6HR MIN TEMP:  65; 6HR MAX TEMP:  78;

MORRIS*        CLEAR     62  56  82 W7        29.89S
LEWIS AIRPORT* CLEAR     63  54  72 W7        29.89R
NORTHERLY ISL    N/A     68  53  58 W1          N/A
$$

WIZ051-052-058>065-066-070>072-240700-
SOUTHEAST WISCONSIN

CITY           SKY/WX    TMP DP  RH WIND       PRES   REMARKS
MILWAUKEE      CLEAR     66  55  67 W8        29.82R
6HR MIN TEMP:  66; 6HR MAX TEMP:  77;

KENOSHA*       CLEAR     60  54  80 W8        29.84R
RACINE*        CLEAR     63  54  72 W6        29.85R
WAUKESHA       CLEAR     59  52  77 W12       29.85R
WEST BEND      CLEAR     61  54  77 W10       29.83R
$$

INZ001>003-010>013-019-020-240700-
NORTHWEST INDIANA

CITY           SKY/WX    TMP DP  RH WIND       PRES   REMARKS
GARY*          CLEAR     69  52  54 W10       29.87R
6HR MIN TEMP:  68; 6HR MAX TEMP:  79;

MICHIGAN CITY* NOT AVBL
RENSSELAER*    NOT AVBL
VALPARAISO     CLEAR     69  56  62 NW9       29.86R
$$

LMZ740>746-240700-
SOUTHERN LAKE MICHIGAN

STATION/POSITION TIME  SKY/WX   TEMP WIND        PRES    VSBY
                                AIR  DIR/SP/G
                 (UTC)          (F)  (DEG/KT/KT) (MB)    (MI)
HARRISON CRIB    0540            69  290/ 13/ 16   N/A
BURNHAM HARBOR   0600            68                N/A
CALUMET HARBOR   0548            68  280/  6/ 10 1010.8R
BURNS HARBOR     0540            68  300/ 11/ 16 1011.2R
MICHIGAN CITY    0540            68  280/ 17/ 18   N/A
$$

ABBREVIATIONS USED IN REMARKS
   TC - TEMPERATURE IN CELSIUS
  WCI - WIND CHILL INDEX
   HX - HEAT INDEX
  VSB - VISIBILITY
$$




USA.gov is the U.S. government's official web portal to all federal, state and local government web resources and services.